EW6271 Weather Reports


time (UTC)temp
F
wind
direction
speed
knots
gust
knots
rain 1hr
in
rain 24hr
in
rain mn
in
humidity
%
barometer
mb
20260507054005 62 136 3.5 7.8 0.00 0.00 0.00 56 1010.5
20260507053604 62 188 2.6 7.0 0.00 0.00 0.00 57 1010.5
20260507053006 62 82 1.7 5.2 0.00 0.00 0.00 58 1010.5
20260507052606 63 197 1.7 4.3 0.00 0.00 0.00 57 1010.4
20260507052010 62 119 1.7 3.5 0.00 0.00 0.00 57 1010.3
20260507051505 62 135 0.9 4.3 0.00 0.00 0.00 56 1010.3
20260507051005 63 247 0.9 3.5 0.00 0.00 0.00 56 1010.3
20260507050006 64 206 1.7 8.7 0.00 0.00 0.00 54 1010.2
20260507045606 64 88 1.7 8.7 0.00 0.00 0.00 52 1010.2
20260507045005 64 208 1.7 6.1 0.00 0.00 0.00 52 1010.2
20260507044508 65 134 2.6 7.8 0.00 0.00 0.00 52 1010.3
20260507044104 65 115 3.5 7.8 0.00 0.00 0.00 52 1010.2
20260507043005 65 227 1.7 8.7 0.00 0.00 0.00 52 1010.4
20260507042510 65 146 2.6 8.7 0.00 0.00 0.00 51 1010.4
20260507042009 65 184 2.6 7.0 0.00 0.00 0.00 53 1010.3
20260507041509 65 170 2.6 10.4 0.00 0.00 0.00 53 1010.3
20260507041005 65 133 2.6 10.4 0.00 0.00 0.00 53 1010.2
20260507040605 65 215 1.7 6.1 0.00 0.00 0.00 54 1010.2
20260507040109 65 202 2.6 7.8 0.00 0.00 0.00 53 1010.3
20260507035510 64 235 2.6 7.8 0.00 0.00 0.00 55 1010.3
20260507035008 63 360 1.7 6.1 0.00 0.00 0.00 57 1010.2
20260507034622 62 168 2.6 6.1 0.00 0.00 0.00 60 1010.2
20260507034006 59 178 0.9 4.3 0.00 0.00 0.00 70 1010.1
20260507033606 59 126 0.0 2.6 0.00 0.00 0.00 73 1010.1
20260507033009 60 52 0.0 1.7 0.00 0.00 0.00 73 1010.2
20260507032504 60 88 0.0 0.9 0.00 0.00 0.00 74 1010.2
20260507032003 60 88 0.0 0.9 0.00 0.00 0.00 74 1010.2
20260507031504 61 88 0.0 0.0 0.00 0.00 0.00 73 1010.1
20260507031106 61 93 0.0 0.0 0.00 0.00 0.00 72 1010.1
20260507030606 61 90 0.0 0.0 0.00 0.00 0.00 71 1010.1
20260507030106 62 89 0.0 0.0 0.00 0.00 0.00 71 1010.1
20260507025504 62 89 0.0 0.0 0.00 0.00 0.00 70 1010.2
20260507025104 63 88 0.0 0.0 0.00 0.00 0.00 69 1010.1
20260507024606 63 88 0.0 0.0 0.00 0.00 0.00 68 1010.1
20260507024008 63 88 0.0 0.0 0.00 0.00 0.00 68 1010.1
20260507023606 64 88 0.0 0.0 0.00 0.00 0.00 67 1010.2
20260507023004 64 88 0.0 0.0 0.00 0.00 0.00 66 1010.2
20260507022606 64 88 0.0 0.0 0.00 0.00 0.00 66 1010.2
20260507022005 65 89 0.0 0.0 0.00 0.00 0.00 64 1010.2
20260507021609 65 90 0.0 0.0 0.00 0.00 0.00 63 1010.2
20260507021106 65 108 0.0 0.9 0.00 0.00 0.00 62 1010.3
20260507020505 66 88 0.0 0.9 0.00 0.00 0.00 63 1010.3
20260507020105 66 88 0.0 0.9 0.00 0.00 0.00 61 1010.3
20260507015603 66 88 0.0 0.9 0.00 0.00 0.00 61 1010.3
20260507014604 67 88 0.0 0.9 0.00 0.00 0.00 58 1010.5
20260507014105 67 88 0.0 0.9 0.00 0.00 0.00 59 1010.5
20260507013508 68 88 0.0 1.7 0.00 0.00 0.00 55 1010.5
20260507013010 68 88 0.0 2.6 0.00 0.00 0.00 54 1010.5
20260507012504 69 88 0.9 2.6 0.00 0.00 0.00 52 1010.5
20260507012005 69 84 0.9 1.7 0.00 0.00 0.00 50 1010.5
20260507011605 69 171 0.0 2.6 0.00 0.00 0.00 52 1010.5
20260507011006 70 103 0.9 3.5 0.00 0.00 0.00 46 1010.5
20260507010601 70 121 0.9 3.5 0.00 0.00 0.00 46 1010.5
20260507010005 70 121 1.7 7.8 0.00 0.00 0.00 46 1010.6
20260507005509 70 102 0.9 7.8 0.00 0.00 0.00 47 1010.6
20260507005101 70 201 0.9 7.8 0.00 0.00 0.00 46 1010.7
20260507004601 70 121 1.7 7.8 0.00 0.00 0.00 45 1010.7
20260507004005 71 194 0.9 6.1 0.00 0.00 0.00 46 1010.7
20260507003502 71 188 1.7 6.1 0.00 0.00 0.00 44 1010.6
20260507003002 71 148 1.7 4.3 0.00 0.00 0.00 45 1010.8
20260507002501 71 125 0.9 4.3 0.00 0.00 0.00 45 1010.7
20260507002002 71 182 1.7 5.2 0.00 0.00 0.00 45 1010.7
20260507001501 71 173 1.7 6.1 0.00 0.00 0.00 44 1010.7
20260507001102 71 89 1.7 6.1 0.00 0.00 0.00 44 1010.8
20260507000601 71 226 1.7 4.3 0.00 0.00 0.00 46 1010.7
20260507000101 72 121 1.7 7.8 0.00 0.00 0.00 44 1010.7
20260506235601 72 78 1.7 7.8 0.00 0.00 0.00 44 1010.7
20260506235004 72 173 1.7 7.8 0.00 0.00 0.00 43 1010.6
20260506234508 72 189 2.6 7.8 0.00 0.00 0.00 44 1010.7
20260506234010 72 169 2.6 7.0 0.00 0.00 0.00 43 1010.7
20260506233502 72 134 3.5 7.8 0.00 0.00 0.00 44 1010.6
20260506233006 72 162 2.6 7.8 0.00 0.00 0.00 45 1010.6
20260506232601 72 194 2.6 8.7 0.00 0.00 0.00 45 1010.7
20260506232100 72 121 4.3 9.6 0.00 0.00 0.00 43 1010.7
20260506231602 72 148 2.6 9.6 0.00 0.00 0.00 42 1010.7
20260506231002 73 53 4.3 7.8 0.00 0.00 0.00 40 1010.7
20260506230601 73 80 3.5 8.7 0.00 0.00 0.00 41 1010.8
20260506230001 73 186 3.5 9.6 0.00 0.00 0.00 43 1010.8
20260506225505 73 135 2.6 6.1 0.00 0.00 0.00 43 1010.9
20260506225001 74 220 3.5 7.0 0.00 0.00 0.00 42 1010.8
20260506224620 74 196 3.5 6.1 0.00 0.00 0.00 43 1010.8
20260506224101 73 157 3.5 6.1 0.00 0.00 0.00 42 1010.9
20260506223502 73 82 2.6 7.0 0.00 0.00 0.00 43 1011.0
20260506223006 73 71 2.6 7.0 0.00 0.00 0.00 43 1011.0
20260506222506 72 103 2.6 7.0 0.00 0.00 0.00 44 1011.0
20260506222001 73 184 1.7 5.2 0.00 0.00 0.00 41 1011.1
20260506221506 73 119 2.6 7.0 0.00 0.00 0.00 42 1011.2
20260506221005 73 201 4.3 7.0 0.00 0.00 0.00 42 1011.2
20260506220601 73 216 3.5 7.8 0.00 0.00 0.00 42 1011.3
20260506220002 73 169 3.5 7.8 0.00 0.00 0.00 39 1011.4
20260506215602 73 183 3.5 7.8 0.00 0.00 0.00 40 1011.4
20260506215002 74 108 2.6 7.0 0.00 0.00 0.00 39 1011.6
20260506214102 73 99 3.5 10.4 0.00 0.00 0.00 41 1011.7
20260506213606 73 100 4.3 10.4 0.00 0.00 0.00 43 1011.6
20260506213101 73 77 3.5 6.1 0.00 0.00 0.00 43 1011.8
20260506212601 73 123 2.6 7.8 0.00 0.00 0.00 41 1011.7
20260506212006 74 103 3.5 9.6 0.00 0.00 0.00 41 1011.8
20260506211505 73 144 3.5 10.4 0.00 0.00 0.00 42 1011.6
20260506211002 73 76 3.5 10.4 0.00 0.00 0.00 45 1011.8
20260506210502 73 55 1.7 6.1 0.00 0.00 0.00 42 1011.9
20260506210004 73 197 3.5 10.4 0.00 0.00 0.00 42 1011.9
20260506205501 73 69 3.5 10.4 0.00 0.00 0.00 42 1011.9
20260506205002 74 26 2.6 7.0 0.00 0.00 0.00 42 1011.8
20260506204602 74 142 2.6 7.0 0.00 0.00 0.00 43 1011.9
20260506204005 73 117 1.7 7.0 0.00 0.00 0.00 45 1011.8
20260506203504 74 59 2.6 6.1 0.00 0.00 0.00 46 1011.9
20260506203002 72 132 2.6 8.7 0.00 0.00 0.00 42 1012.0
20260506202505 73 80 1.7 8.7 0.00 0.00 0.00 44 1012.1
20260506202003 73 215 5.2 8.7 0.00 0.00 0.00 41 1012.1
20260506201502 73 201 4.3 8.7 0.00 0.00 0.00 43 1012.2
20260506201005 72 92 1.7 6.1 0.00 0.00 0.00 41 1012.3
20260506200501 72 326 2.6 8.7 0.00 0.00 0.00 43 1012.2
20260506200007 72 183 2.6 8.7 0.00 0.00 0.00 42 1012.2
20260506195508 72 48 4.3 8.7 0.00 0.00 0.00 47 1012.4
20260506195101 72 94 2.6 7.0 0.00 0.00 0.00 44 1012.4
20260506194502 73 34 1.7 7.8 0.00 0.00 0.00 47 1012.3
20260506194008 72 97 1.7 7.8 0.00 0.00 0.00 44 1012.3
20260506193501 72 190 4.3 7.8 0.00 0.00 0.00 41 1012.4
20260506193005 71 128 2.6 6.1 0.00 0.00 0.00 42 1012.5
20260506192601 72 71 3.5 8.7 0.00 0.00 0.00 44 1012.5
20260506192102 71 71 1.7 8.7 0.00 0.00 0.00 46 1012.5
20260506191601 71 33 2.6 7.8 0.00 0.00 0.00 47 1012.6
20260506191002 71 201 2.6 7.8 0.00 0.00 0.00 46 1012.6
20260506190510 71 52 1.7 6.1 0.00 0.00 0.00 48 1012.5
20260506190002 72 12 2.6 8.7 0.00 0.00 0.00 47 1012.6
20260506185505 71 263 3.5 8.7 0.00 0.00 0.00 46 1012.7
20260506185006 71 192 1.7 8.7 0.00 0.00 0.00 47 1012.8
20260506184506 69 140 4.3 8.7 0.00 0.00 0.00 45 1012.9
20260506184101 69 136 2.6 6.1 0.00 0.00 0.00 47 1012.9
20260506183504 68 175 2.6 6.1 0.00 0.00 0.00 46 1013.0
20260506183007 68 105 1.7 4.3 0.00 0.00 0.00 47 1013.1
20260506182505 67 180 1.7 5.2 0.00 0.00 0.00 47 1013.2
20260506182101 68 202 1.7 6.1 0.00 0.00 0.00 46 1013.3
20260506181626 66 163 2.6 6.1 0.00 0.00 0.00 46 1013.2
20260506181103 68 182 1.7 4.3 0.00 0.00 0.00 42 1013.2
20260506180502 66 188 1.7 7.0 0.00 0.00 0.00 46 1013.3
20260506180001 66 165 3.5 7.8 0.00 0.00 0.00 43 1013.3
20260506175504 68 154 0.9 2.6 0.00 0.00 0.00 43 1013.3
20260506175001 67 221 0.9 5.2 0.00 0.00 0.00 44 1013.4
20260506174603 66 254 2.6 5.2 0.00 0.00 0.00 44 1013.4
20260506174101 65 97 1.7 5.2 0.00 0.00 0.00 47 1013.4
20260506173504 66 194 1.7 4.3 0.00 0.00 0.00 46 1013.5
20260506173131 66 168 2.6 4.3 0.00 0.00 0.00 41 1013.5
20260506172601 67 205 0.9 3.5 0.00 0.00 0.00 44 1013.5
20260506172101 64 151 0.9 5.2 0.00 0.00 0.00 47 1013.5
20260506171501 64 117 1.7 5.2 0.00 0.00 0.00 47 1013.5
20260506171011 65 207 1.7 4.3 0.00 0.00 0.00 45 1013.5
20260506170504 63 195 1.7 3.5 0.00 0.00 0.00 45 1013.6
20260506170001 63 191 0.9 4.3 0.00 0.00 0.00 44 1013.5
20260506165604 62 104 2.6 4.3 0.00 0.00 0.00 46 1013.6
20260506165103 62 145 1.7 5.2 0.00 0.00 0.00 45 1013.5
20260506164601 61 123 2.6 5.2 0.00 0.00 0.00 46 1013.5
20260506163506 61 132 2.6 6.1 0.00 0.00 0.00 47 1013.4
20260506163006 60 117 1.7 6.1 0.00 0.00 0.00 49 1013.4
20260506162508 60 127 1.7 4.3 0.00 0.00 0.00 46 1013.4
20260506162001 60 157 2.6 4.3 0.00 0.00 0.00 46 1013.5
20260506161602 60 149 1.7 4.3 0.00 0.00 0.00 51 1013.5
20260506161104 59 111 1.7 5.2 0.00 0.00 0.00 50 1013.6
20260506160602 59 119 2.6 5.2 0.00 0.00 0.00 46 1013.7
20260506160002 58 109 2.6 6.1 0.00 0.00 0.00 48 1013.8
20260506155601 59 107 2.6 6.1 0.00 0.00 0.00 50 1013.8
20260506155001 59 182 2.6 6.1 0.00 0.00 0.00 48 1013.9
20260506154514 58 64 1.7 7.0 0.00 0.00 0.00 50 1013.9
20260506154102 58 104 3.5 7.0 0.00 0.00 0.00 48 1013.9
20260506153502 57 133 2.6 7.8 0.00 0.00 0.00 52 1013.9
20260506153001 57 144 1.7 7.8 0.00 0.00 0.00 52 1013.9
20260506152501 57 129 1.7 6.1 0.00 0.00 0.00 52 1013.9
20260506152104 57 96 1.7 5.2 0.00 0.00 0.00 50 1014.0
20260506151502 57 111 2.6 5.2 0.00 0.00 0.00 50 1014.1
20260506151101 56 123 1.7 6.1 0.00 0.00 0.00 49 1014.0
20260506150603 57 360 2.6 6.1 0.00 0.00 0.00 49 1014.0
20260506150007 57 142 2.6 3.5 0.00 0.00 0.00 48 1013.9
20260506145504 57 118 0.9 2.6 0.00 0.00 0.00 49 1013.9
20260506145103 57 145 0.9 1.7 0.00 0.00 0.00 52 1013.9
20260506144508 57 103 0.0 1.7 0.00 0.00 0.00 52 1013.9
20260506144103 57 20 0.0 0.0 0.00 0.00 0.00 53 1013.9
20260506143601 55 351 0.0 0.0 0.00 0.00 0.00 63 1014.0
20260506143102 54 351 0.0 0.0 0.00 0.00 0.00 62 1014.0
20260506142606 52 351 0.0 0.0 0.00 0.00 0.00 67 1014.0
20260506142003 50 351 0.0 0.0 0.00 0.00 0.00 74 1014.0
20260506141602 49 351 0.0 0.0 0.00 0.00 0.00 76 1014.1
20260506141101 48 351 0.0 0.0 0.00 0.00 0.00 78 1014.0
20260506140602 47 351 0.0 0.0 0.00 0.00 0.00 78 1014.0
20260506140001 46 360 0.0 0.0 0.00 0.00 0.00 80 1014.1
20260506135501 45 351 0.0 0.0 0.00 0.00 0.00 83 1014.0
20260506135001 44 351 0.0 0.0 0.00 0.00 0.00 84 1014.1
20260506134502 43 351 0.0 0.0 0.00 0.00 0.00 85 1014.1
20260506134001 42 351 0.0 0.0 0.00 0.00 0.00 87 1014.1
20260506133602 41 351 0.0 0.0 0.00 0.00 0.00 87 1014.0
20260506133004 40 351 0.0 0.0 0.00 0.00 0.00 88 1013.9
20260506132503 40 351 0.0 0.0 0.00 0.00 0.00 89 1013.7
20260506132002 39 351 0.0 0.0 0.00 0.00 0.00 90 1013.7
20260506131501 39 351 0.0 0.0 0.00 0.00 0.00 90 1013.7
20260506131002 38 351 0.0 0.0 0.00 0.00 0.00 90 1013.7
20260506130601 38 351 0.0 0.0 0.00 0.00 0.00 90 1013.7
20260506125501 37 351 0.0 0.0 0.00 0.00 0.00 90 1013.6
20260506125101 37 351 0.0 0.0 0.00 0.00 0.00 90 1013.6
20260506124603 37 351 0.0 0.0 0.00 0.00 0.00 90 1013.6
20260506124101 37 351 0.0 0.0 0.00 0.00 0.00 90 1013.6
20260506123606 37 351 0.0 0.0 0.00 0.00 0.00 90 1013.5
20260506123005 37 351 0.0 0.0 0.00 0.00 0.00 90 1013.4
20260506122504 37 351 0.0 0.0 0.00 0.00 0.00 90 1013.5
20260506122101 37 351 0.0 0.0 0.00 0.00 0.00 90 1013.4
20260506121506 37 351 0.0 0.0 0.00 0.00 0.00 90 1013.4
20260506121003 37 351 0.0 0.0 0.00 0.00 0.00 90 1013.3
20260506120603 37 351 0.0 0.0 0.00 0.00 0.00 89 1013.4
20260506120104 38 351 0.0 0.0 0.00 0.00 0.00 90 1013.3
20260506115603 38 351 0.0 0.0 0.00 0.00 0.00 90 1013.2
20260506115001 38 351 0.0 0.0 0.00 0.00 0.00 89 1013.2
20260506114601 38 351 0.0 0.0 0.00 0.00 0.00 89 1013.1
20260506114002 38 351 0.0 0.0 0.00 0.00 0.00 89 1013.1
20260506113502 38 351 0.0 0.0 0.00 0.00 0.00 89 1013.0
20260506113102 38 351 0.0 0.0 0.00 0.00 0.00 89 1013.1
20260506112604 38 351 0.0 0.0 0.00 0.00 0.00 89 1013.1
20260506112006 38 351 0.0 0.0 0.00 0.00 0.00 89 1013.1
20260506111601 38 351 0.0 0.0 0.00 0.00 0.00 89 1013.1
20260506111102 38 351 0.0 0.0 0.00 0.00 0.00 89 1013.1
20260506110602 39 351 0.0 0.0 0.00 0.00 0.00 89 1013.0
20260506110008 38 351 0.0 0.0 0.00 0.00 0.00 89 1012.9
20260506105504 39 351 0.0 0.0 0.00 0.00 0.00 89 1012.9
20260506105007 38 351 0.0 0.0 0.00 0.00 0.00 89 1012.9
20260506104501 39 351 0.0 0.0 0.00 0.00 0.00 89 1012.8
20260506104001 39 351 0.0 0.0 0.00 0.00 0.00 89 1012.9
20260506103501 39 351 0.0 0.0 0.00 0.00 0.00 88 1012.8
20260506103001 39 351 0.0 0.0 0.00 0.00 0.00 88 1012.8
20260506102502 39 351 0.0 0.0 0.00 0.00 0.00 88 1012.8
20260506102103 39 351 0.0 0.0 0.00 0.00 0.00 88 1012.8
20260506101601 39 351 0.0 0.9 0.00 0.00 0.00 88 1012.8
20260506101005 39 351 0.0 0.9 0.00 0.00 0.00 87 1012.7
20260506100506 39 351 0.0 1.7 0.00 0.00 0.00 87 1012.7
20260506100002 39 351 0.0 1.7 0.00 0.00 0.00 88 1012.8
20260506095502 39 351 0.0 0.9 0.00 0.00 0.00 87 1012.7
20260506095002 40 351 0.0 1.7 0.00 0.00 0.00 87 1012.6
20260506094624 40 351 0.0 1.7 0.00 0.00 0.00 87 1012.6
20260506094002 40 351 0.0 1.7 0.00 0.00 0.00 87 1012.6
20260506093501 40 351 0.0 1.7 0.00 0.00 0.00 87 1012.6
20260506093102 40 351 0.0 1.7 0.00 0.00 0.00 87 1012.6
20260506092601 40 351 0.0 0.9 0.00 0.00 0.00 87 1012.6
20260506092003 40 351 0.0 1.7 0.00 0.00 0.00 87 1012.6
20260506091507 40 351 0.9 1.7 0.00 0.00 0.00 87 1012.5
20260506091002 40 351 0.0 1.7 0.00 0.00 0.00 86 1012.5
20260506090601 40 351 0.0 1.7 0.00 0.00 0.00 86 1012.7
20260506085503 41 351 0.9 1.7 0.00 0.00 0.00 85 1012.6
20260506085002 41 355 0.0 1.7 0.00 0.00 0.00 85 1012.6
20260506084506 41 355 0.9 1.7 0.00 0.00 0.00 86 1012.5
20260506084103 41 5 0.9 1.7 0.00 0.00 0.00 86 1012.6
20260506083502 41 5 0.9 1.7 0.00 0.00 0.00 86 1012.6
20260506083110 41 5 0.0 1.7 0.00 0.00 0.00 85 1012.6
20260506082602 41 5 0.9 1.7 0.00 0.00 0.00 85 1012.5
20260506082103 41 5 0.9 1.7 0.00 0.00 0.00 85 1012.5
20260506081501 42 5 0.9 1.7 0.00 0.00 0.00 85 1012.5
20260506081001 42 5 0.9 1.7 0.00 0.00 0.00 84 1012.5
20260506080503 42 5 0.0 1.7 0.00 0.00 0.00 84 1012.5
20260506073002 43 5 0.0 1.7 0.00 0.00 0.00 83 1012.2
20260506072503 43 5 0.9 1.7 0.00 0.00 0.00 83 1012.3
20260506072006 44 360 0.9 1.7 0.00 0.00 0.00 83 1012.2
20260506071601 44 360 0.0 1.7 0.00 0.00 0.00 83 1012.2
20260506071002 44 360 0.0 1.7 0.00 0.00 0.00 82 1012.0
20260506070505 44 360 0.9 1.7 0.00 0.00 0.00 82 1012.0
20260506062502 44 355 0.0 1.7 0.00 0.00 0.00 82 1011.4
20260506062002 44 355 0.9 1.7 0.00 0.00 0.00 82 1011.3
20260506061502 44 355 0.0 1.7 0.00 0.00 0.00 82 1011.2
20260506061105 44 346 0.9 1.7 0.00 0.00 0.00 82 1011.2
20260506060501 44 346 0.0 1.7 0.00 0.00 0.00 82 1011.1